[Date Prev][Date Next][Thread Prev][Thread Next] - [Date Index][Thread Index][Author Index]

2 Line ISS Keps 5-16



ISS
1 25544U 98067A   05136.40584689  .00055400  00000-0  41981-3 0  4871
2 25544 051.6478 063.6879 0005732 124.1040 341.1967 15.71798583370680
----
Via the sarex mailing list at AMSAT.ORG courtesy of AMSAT-NA.
To unsubscribe, send "unsubscribe sarex" to Majordomo@amsat.org



AMSAT Top AMSAT Home